Volver al catálogo

SL-16 DEB

ActivoLEO
NORAD 22432·DEBRIS·🇷🇺 Russia

Lanzado Dec 25, 1992 desde Baikonur Cosmodrome

Loading…

Próximos Pases (próximas 24 horas)

TLE

ActualizadoSource: Space-Track

Época: Sep 14, 2026, 03:09 UTC

1 22432U 92093DZ  26257.13191294  .00000616  00000-0  37720-3 0  9993
2 22432  70.8321  59.1001 0099634 215.4490 265.4519 14.07434474718396

Sigue SL-16 DEB en tiempo real con AllMySat

Download on the App Store